sat.trackr.live / text

‹ back to catalog

ICEYE-X45

NORAD 62705 · 2025-009DA

PAYLOAD ACTIVE UNKNOWN

§ Identity

Operator
Country
US
Launch date
2025-01-14
Launch site
AFWTR
Launch vehicle
Mass (kg)
RCS (m²)

External: N2YO · Heavens-Above · Gunter

§ Orbital elements

Epoch: 2026-05-25T04:40:32.121408Z

Period
95.94 min
Inclination
97.8252°
Eccentricity
0.0001094
Mean motion
15.00866269 rev/d
Perigee alt
563.5 km
Apogee alt
565.0 km
Semi-major
6,942.4 km
B*
6.9330e-4
RAAN
231.7120°
Arg perigee
92.6146°
Mean anomaly
267.5203°
Rev number
7,423

§ Raw data

ICEYE-X451 62705U 25009DA  26145.19481622  .00008764  00000+0  69330-3 0  99952 62705  97.8252 231.7120 0001094  92.6146 267.5203 15.00866269 74237

JSON: /api/v1/satellites/62705 · /tle

For live sub-satellite position, see the globe view (requires WebGL).

§ Visibility from observer

Set your observer location to see the next 7 days of passes ≥ 10°. The values pass through the URL so the page stays shareable.

No JS? Fill the form by hand. The geolocation button needs JavaScript.

§ Radio — SatNOGS DB

ModeDescriptionDownlinkUplink
BPSK S-band telemetry 2.264 GHz

1 transmitter · refreshed weekly from db.satnogs.org